Regional Weather Roundup
Issued by NWS

Home | Current Version | Previous Version | Text Only | Print | Product List | Glossary Off
Versions: 1 2 3 4 5 6 7 8 9 10 11 12 13 14 15 16 17 18 19 20 21 22 23 24 25 26 27

000
ASUS45 KTFX 192310
RWRMT
MONTANA REGIONAL WEATHER ROUNDUP
NATIONAL WEATHER SERVICE GREAT FALLS MT
500 PM MDT THU OCT 19 2017

NOTE: "FAIR" INDICATES FEW OR NO CLOUDS BELOW 12000 FEET WITH NO
SIGNIFICANT WEATHER AND/OR OBSTRUCTIONS TO VISIBILITY.

MTZ001>007-043-200000-
WEST OF THE DIVIDE

CITY           SKY/WX    TMP DP  RH WIND       PRES   REMARKS
KALISPELL      PTSUNNY   63  32  31 VRB3      29.53F
MISSOULA       MOSUNNY   70  35  27 E3        29.56F
BUTTE          CLOUDY    69  12  11 S17G24    29.69F
MULLAN PASS    CLOUDY    48  26  42 VRB5      29.64F
DEER LODGE       N/A     70  18  13 S10       29.64F
EUREKA           N/A     63  28  27 MISG      29.53
HAMILTON         N/A     73  18  12 S7        29.58F
LIBBY            N/A     64  28  25 CALM      29.52F
$$

MTZ008-052>055-200000-
SOUTHWEST MONTANA

CITY           SKY/WX    TMP DP  RH WIND       PRES   REMARKS
BOZEMAN        SUNNY     73  13  10 SW10      29.67S
DILLON         CLOUDY    69  14  12 S18G32    29.70F
W YELLOWSTONE  SUNNY     61   9  12 SW17G23   29.90F
ENNIS          CLOUDY    66  12  12 S18G28    29.82S
THREE FORKS      N/A     73  13  10 S22       29.69F
$$

MTZ009-010-012-014-046-048-049-054-200000-
EAST SLOPES AND CENTRAL MONTANA

CITY           SKY/WX    TMP DP  RH WIND       PRES   REMARKS
CUT BANK       PTSUNNY   68  16  13 W22       29.52F
GREAT FALLS    CLOUDY    73  18  12 SW9       29.55F
MALMSTROM AFB  CLOUDY    69  25  19 SW7       29.54F
HELENA         CLOUDY    75  16  10 S14       29.59F
BOWMANS CRNR     N/A     69  15  12 SW20G28   29.55F
CHOTEAU          N/A     70  14  11 SW14G21   29.57F
FAIRFIELD        N/A     67  21  17 SW9       29.55F
POWER            N/A     66  18  15 SW6       29.54F
RAYNESFORD       N/A     71  17  13 SW3       29.59F
ULM              N/A     74  21  13 SW10      29.54F
$$

MTZ011-013-016-021-045-047-050-051-200000-
NORTH CENTRAL MONTANA

CITY           SKY/WX    TMP DP  RH WIND       PRES   REMARKS
HAVRE          MOSUNNY   74  20  13 SW10      29.52F
LEWISTOWN      CLOUDY    72  20  14 S9        29.63F
N BAR RANCH      N/A     72  16  12 SW16G23   29.69F
CHINOOK          N/A     77  19  11 SW9G18    29.52F
DENTON           N/A     75  20  12 SW9       29.55F
GEYSER           N/A     69  16  13 MISG      29.59F
GRASS RANGE      N/A     72  19  13 S12       29.59F
JUDITH GAP       N/A     71  19  14 S21       29.65F
WINIFRED         N/A     74  20  13 S8        29.58F
$$

MTZ017>020-022>027-061-062-200000-
NORTHEAST MONTANA

CITY           SKY/WX    TMP DP  RH WIND       PRES   REMARKS
GLASGOW        CLEAR     79  21  11 SW9       29.57F
JORDAN           N/A     78  27  15 S12       29.60F
SIDNEY         CLEAR     74  36  25 S7        29.63
WOLF POINT     CLEAR     82  20  10 W8        29.58F
MALTA          SUNNY     73  27  17 W3        29.55S
PLENTYWOOD       N/A     79  27  14 CALM      29.60S
POPLAR           N/A     81  28  15 SW8       29.59F
$$

MTZ028>42-056>058-200000-
SOUTHCENTRAL AND SOUTHEAST MONTANA

CITY           SKY/WX    TMP DP  RH WIND       PRES   REMARKS
BAKER          CLEAR     77  33  20 S8        29.71F
BILLINGS       MOSUNNY   78  21  12 SW13      29.65F
LIVINGSTON     SUNNY     73  10   9 SW31G40   29.67F
MILES CITY     SUNNY     80  29  15 S8        29.64F
BIG TIMBER     SUNNY     73  12   9 W6        29.70F
FORSYTH          N/A     81  25  12 SE8       29.63F
HARLOWTON        N/A     72  16  11 MISG      29.65F
LAUREL           N/A     77  19  11 SW13G18   29.66F
$$

REGIONAL REPORTS...DAKOTAS

CITY           SKY/WX    TMP DP  RH WIND       PRES   REMARKS
WILLISTON      CLEAR     77  33  20 S7        29.63F
MINOT          CLEAR     77  33  20 S10       29.65S
DICKINSON      CLEAR     77  31  18 S5        29.69F
BEACH            N/A     77  25  14 SW6       29.72F
CROSBY           N/A     75  32  20 SW9       29.61S
TIOGA            N/A     73  32  21 S7        29.66S
WATFORD CITY     N/A     77  30  18 S6        29.64F
BISMARCK       CLEAR     73  37  27 SE13      29.71F
GRAND FORKS    PTCLDY    69  41  36 S14       29.71F
FARGO          CLEAR     69  42  37 S9        29.76S
BUFFALO SD       N/A     76  29  17 SE8       29.67F
RAPID CITY     CLEAR     80  19  10 SW10      29.76S
$$

REGIONAL REPORTS...WYOMING/IDAHO/WASHINGTON

CITY           SKY/WX    TMP DP  RH WIND       PRES   REMARKS
GILLETTE       CLOUDY    74  20  13 S15       29.75F
SHERIDAN       CLOUDY    81  31  16 CALM      29.70F
BUFFALO WY     CLOUDY    75  22  13 NW7       29.76S
CODY           SUNNY     71  24  17 S8        29.79F
YELLOWSTONE LA   N/A     56  14  19 VRB5      29.99F
IDAHO FALLS    SUNNY     70  25  18 S14       29.82F
SALMON         CLOUDY    74  13   9 S13       29.61F
BOISE          MOSUNNY   77  11   8 VRB6      29.65F
SPOKANE        CLOUDY    56  43  61 CALM      29.55F
$$

REGIONAL REPORTS...ALBERTA

CITY           SKY/WX    TMP DP  RH WIND       PRES   REMARKS
EDMONTON       SUNNY     54  39  58 SE5       29.35S
CALGARY        PTSUNNY   57  36  44 S16G23    29.39S
MEDICINE HAT   CLOUDY    68  28  22 SE7       29.45F
$$

REGIONAL REPORTS...SASKATCHEWAN

CITY           SKY/WX    TMP DP  RH WIND       PRES   REMARKS
SWIFT CURRENT  CLEAR     66  27  22 SW14      29.51S
REGINA         MOCLDY    72  28  20 W7        29.52S
SASKATOON      MOCLDY    59  39  47 SW7       29.47R
$$




USA.gov is the U.S. government's official web portal to all federal, state and local government web resources and services.